Location: Oberkirch
(48.5323°N, 8.0787°E)
Time: 07:39:43
(UTC+00:00)

COSMOS 2455 - Pass Details

Date: 08 November 2025
Orbit: 898 x 910 km, 67.1° (Epoch: 13 December)

Event Time Altitude Azimuth Distance (km) Brightness Sun altitude
Exits shadow 05:28:15 11° 300° (WNW) 2,542 4.6 -9.7°
Maximum altitude 05:31:51 17° 338° (NNW) 2,129 4.5 -9.1°
Drops below altitude 10° 05:35:44 10° 19° (NNE) 2,607 5.3 -8.5°
Sets 05:39:14 0° 39° (NE) 3,551 6.3 -7.9°
